Location: Unspecified
(50.7693°N, 0.0000°E)
Time: 15:15:03
(UTC+00:00)

Transit 2A - Pass Details

Date: 30 June 2019
Orbit: 594 x 965 km, 66.7° (Epoch: 17 July)

Event Time Altitude Azimuth Distance (km) Brightness Sun altitude
Rises 02:48:55 0° 299° (WNW) 3,608 9.4 -7.6°
Reaches altitude 10° 02:52:33 10° 319° (NW) 2,616 8.9 -7.2°
Maximum altitude 02:56:23 17° 358° (N) 2,101 9.0 -6.8°
Drops below altitude 10° 03:00:02 10° 38° (NE) 2,477 10.5 -6.4°
Sets 03:03:21 0° 58° (ENE) 3,333 11.0 -6.1°
